FW1036 Weather Reports


time (UTC)temp
C
wind
direction
speed
KPH
gust
KPH
rain 1hr
cm
rain 24hr
cm
rain mn
cm
humidity
%
barometer
mb
20260831151515 20 306 1.6 14.5 0.61 1.57 1.12 93 1015.5
20260831150007 20 279 8.0 20.9 0.41 1.42 0.91 93 1015.7
20260831144504 20 253 1.6 6.4 0.03 1.07 0.53 93 1015.4
20260831143117 20 223 0.0 0.0 0.03 1.07 0.53 93 1014.7
20260831141607 20 223 0.0 0.0 0.00 1.04 0.51 93 1014.5
20260831140100 20 223 0.0 0.0 0.00 1.04 0.51 93 1014.5
20260831134601 20 223 0.0 0.0 0.00 1.09 0.51 93 1014.2
20260831133056 20 159 0.0 3.2 0.00 1.09 0.51 92 1014.3
20260831131601 20 159 0.0 3.2 0.00 1.09 0.51 93 1014.2
20260831130056 20 159 0.0 1.6 0.00 1.09 0.51 93 1013.9
20260831124602 20 167 1.6 8.0 0.00 1.19 0.51 93 1013.9
20260831123054 20 179 1.6 4.8 0.00 1.19 0.51 93 1014.1
20260831121557 20 219 0.0 1.6 0.03 1.19 0.51 93 1014.0
20260831120047 19 219 0.0 1.6 0.05 1.19 0.51 93 1014.1
20260831114551 19 219 0.0 0.0 0.13 1.27 0.51 93 1013.8
20260831113044 19 144 3.2 8.0 0.28 1.27 0.51 93 1013.7
20260831111548 19 160 1.6 8.0 0.33 1.24 0.48 93 1013.5
20260831110054 19 165 1.6 8.0 0.33 1.19 0.43 93 1013.8
20260831104543 19 238 1.6 11.3 0.28 1.17 0.38 93 1014.1
20260831103040 19 280 0.0 1.6 0.20 1.02 0.23 92 1014.3
20260831101544 19 279 0.0 1.6 0.13 0.94 0.15 92 1014.6
20260831100037 19 279 0.0 1.6 0.08 0.89 0.10 92 1014.4
20260831094540 19 279 0.0 1.6 0.08 0.89 0.10 91 1014.4
20260831093035 19 213 3.2 8.0 0.00 0.81 0.03 91 1014.1
20260831091545 19 212 0.0 4.8 0.00 0.81 0.03 92 1013.9
20260831090033 19 205 1.6 6.4 0.00 0.81 0.03 92 1014.0
20260831084532 19 208 3.2 6.4 0.00 0.81 0.03 92 1014.0
20260831083031 19 223 0.0 3.2 0.00 0.81 0.03 92 1014.1
20260831081531 19 253 1.6 8.0 0.00 0.81 0.03 92 1013.8
20260831080032 19 225 1.6 6.4 0.00 0.81 0.03 92 1013.8
20260831074528 20 227 0.0 4.8 0.00 0.81 0.03 92 1014.1
20260831073029 19 232 1.6 9.7 0.00 0.81 0.03 92 1014.0
20260831071531 20 231 1.6 8.0 0.00 0.81 0.03 92 1014.0
20260831070025 19 240 1.6 4.8 0.00 0.81 0.03 92 1014.1
20260831064525 20 206 3.2 6.4 0.03 0.81 0.03 92 1014.2
20260831063022 20 201 3.2 9.7 0.03 0.81 0.03 92 1014.5
20260831061521 20 201 3.2 11.3 0.03 0.81 0.03 92 1014.5
20260831060020 20 210 1.6 14.5 0.03 0.81 0.03 92 1014.5
20260831054518 20 215 3.2 11.3 0.00 0.79 0.00 91 1014.3
20260831053022 20 202 4.8 9.7 0.00 0.79 0.00 91 1014.6
20260831051520 20 196 6.4 24.1 0.00 0.79 0.00 91 1014.4
20260831050014 20 215 4.8 14.5 0.00 0.79 0.00 91 1014.4
20260831044514 20 199 6.4 14.5 0.00 0.79 0.00 91 1014.4
20260831043012 20 191 4.8 12.9 0.00 0.79 0.00 92 1014.5
20260831041511 20 211 1.6 8.0 0.00 0.79 0.00 92 1014.5
20260831040022 20 235 3.2 8.0 0.00 0.79 0.79 92 1014.5
20260831034512 20 235 4.8 12.9 0.00 0.79 0.79 92 1014.5
20260831033007 20 219 4.8 17.7 0.00 0.79 0.79 92 1014.6
20260831031506 20 177 4.8 12.9 0.00 0.79 0.79 92 1014.6
20260831030005 20 232 4.8 16.1 0.00 0.79 0.79 92 1014.4
20260831024504 19 138 6.4 14.5 0.00 0.79 0.79 92 1014.3
20260831023006 19 159 4.8 14.5 0.00 0.79 0.79 92 1014.3
20260831021503 19 142 6.4 17.7 0.00 0.79 0.79 92 1014.3
20260831020001 19 155 6.4 19.3 0.00 0.79 0.79 92 1014.4
20260831014501 19 171 11.3 19.3 0.00 0.79 0.79 92 1014.6
20260831013108 19 185 11.3 19.3 0.00 0.79 0.79 92 1014.6
20260831011559 19 156 11.3 19.3 0.00 0.79 0.79 92 1014.6
20260831010059 19 178 8.0 17.7 0.00 0.79 0.79 92 1014.5
20260831004603 19 134 9.7 20.9 0.00 0.79 0.79 92 1014.5
20260831003057 19 192 8.0 19.3 0.00 0.79 0.79 92 1014.5
20260831001556 19 153 8.0 25.7 0.00 0.79 0.79 92 1014.7
20260831000056 19 165 4.8 19.3 0.00 0.79 0.79 92 1014.7
20260830234556 19 171 3.2 16.1 0.00 0.79 0.79 92 1014.7
20260830233055 19 231 4.8 12.9 0.00 0.79 0.79 92 1014.7
20260830231601 19 158 6.4 16.1 0.00 0.79 0.79 92 1014.8
20260830230055 19 213 4.8 9.7 0.00 0.79 0.79 92 1015.1
20260830224558 19 165 3.2 14.5 0.03 0.79 0.79 92 1015.2
20260830223055 19 223 4.8 19.3 0.05 0.79 0.79 92 1015.3
20260830221602 18 158 4.8 17.7 0.05 0.79 0.79 92 1015.4
20260830220055 18 192 4.8 9.7 0.05 0.79 0.79 92 1015.2
20260830214556 18 193 3.2 11.3 0.03 0.76 0.76 91 1015.1
20260830213051 18 211 1.6 11.3 0.28 0.71 0.71 91 1015.3
20260830211555 18 215 3.2 8.0 0.28 0.71 0.71 91 1015.2
20260830210050 18 228 1.6 11.3 0.28 0.71 0.71 91 1014.9
20260830204549 18 232 3.2 9.7 0.28 0.71 0.71 91 1014.8
20260830203047 18 169 4.8 14.5 0.00 0.46 0.46 92 1014.8
20260830201547 18 159 3.2 19.3 0.00 0.46 0.46 92 1014.8
20260830200048 18 204 3.2 12.9 0.00 0.46 0.46 92 1014.8
20260830194544 18 169 4.8 14.5 0.00 0.46 0.46 92 1015.0
20260830193046 18 181 4.8 12.9 0.00 0.46 0.46 93 1015.1
20260830191546 18 219 4.8 16.1 0.00 0.46 0.46 92 1015.1
20260830190041 18 170 4.8 12.9 0.00 0.46 0.46 92 1015.2
20260830184540 18 148 6.4 14.5 0.00 0.46 0.46 92 1015.1
20260830183037 18 176 3.2 6.4 0.00 0.46 0.46 92 1016.3
20260830181536 18 167 1.6 6.4 0.00 0.46 0.46 93 1016.1
20260830180051 18 146 4.8 9.7 0.00 0.46 0.46 92 1015.8
20260830174537 18 155 8.0 14.5 0.00 0.46 0.46 92 1015.7
20260830173048 18 150 6.4 11.3 0.00 0.46 0.46 92 1015.8
20260830171533 18 167 4.8 11.3 0.03 0.46 0.46 92 1016.2
20260830170030 18 167 4.8 9.7 0.05 0.46 0.46 92 1016.3
20260830164527 18 145 3.2 11.3 0.05 0.46 0.46 92 1016.5
20260830163025 18 152 6.4 14.5 0.08 0.46 0.46 92 1016.4
20260830161523 18 126 4.8 14.5 0.08 0.43 0.43 92 1016.5
20260830160021 17 175 6.4 12.9 0.08 0.41 0.41 92 1016.5
20260830154520 17 129 4.8 12.9 0.10 0.41 0.41 92 1016.8
20260830153017 17 188 1.6 11.3 0.10 0.38 0.38 92 1017.1